Change the Weather History Date:

Sunday, March 10, 2013

  Actual Average (KFSD) Record (KFSD)
Temperature  
Mean Temperature 28 °F 30 °F  
Max Temperature 32 °F 40 °F 72 °F (2012)
Min Temperature 21 °F 21 °F -18 °F (1948)
Degree Days  
Heating Degree Days 38 35  
Month to date heating degree days 366  
Since 1 July heating degree days 6216  
Cooling Degree Days 0 0  
Month to date cooling degree days 0  
Year to date cooling degree days 0  
Moisture  
Dew Point 22 °F    
Average Humidity 81    
Maximum Humidity 87    
Minimum Humidity 74    
Precipitation  
Precipitation 0.00 in 0.04 in 1.93 in (1956)
Month to date precipitation 0.38  
Year to date precipitation 1.54  
Snow  
Snow 0.00 in 0.30 in 18.10 in (1956)
Month to date snowfall 3.1  
Since 1 July snowfall 34.6  
Snow Depth -    
Sea Level Pressure  
Sea Level Pressure 29.93 in    
Wind  
Wind Speed 20 mph (North)    
Max Wind Speed 29 mph    
Max Gust Speed 38 mph    
Visibility 8 miles    
Events Snow    
T = Trace of Precipitation, MM = Missing Value Source: NWS Daily Summary

Daily Weather History Graph

Daily Weather History Graph

Search for Another Location

Airport or City:

Trip Planner

Search our weather history database for the weather conditions in past years. The results will help you decide how hot, cold, wet, or windy it might be!

Date:

Astronomy

Mar. 10, 2013 Rise Set
Actual Time 7:45 AM CDT 7:25 PM CDT
Civil Twilight 7:16 AM CDT 7:53 PM CDT
Nautical Twilight 6:43 AM CDT 8:27 PM CDT
Astronomical Twilight 6:10 AM CDT 9:00 PM CDT
Moon 6:47 AM CDT (3/10) 6:34 PM CDT (3/10)
Length of Visible Light 12h 37m
Length of Day
11h 39m
Waning Crescent, 2% of the Moon is Illuminated
Mar 10
Waning Crescent
Mar 11
New
Mar 19
First Quarter
Mar 27
Full
Apr 2
Last Quarter

Hourly Weather History & Observations

Time (CDT) Temp. Windchill Dew Point Humidity Pressure Visibility Wind Dir Wind Speed Gust Speed Precip Events Conditions
12:17 AM 32.0 °F 19.5 °F 28.4 °F 87% 29.83 in 7.0 mi North 21.9 mph 31.1 mph N/A   Overcast
12:37 AM 32.0 °F 19.2 °F 28.4 °F 87% 29.83 in 7.0 mi North 23.0 mph 33.4 mph N/A   Overcast
12:56 AM 32.0 °F 20.5 °F 28.4 °F 87% 29.83 in 7.0 mi North 18.4 mph 31.1 mph N/A   Overcast
1:17 AM 32.0 °F 19.8 °F 26.6 °F 80% 29.81 in 7.0 mi North 20.7 mph 26.5 mph N/A   Overcast
1:37 AM 32.0 °F 20.1 °F 26.6 °F 80% 29.84 in 7.0 mi North 19.6 mph 29.9 mph N/A   Overcast
1:56 AM 30.2 °F 17.4 °F 26.6 °F 86% 29.85 in 7.0 mi North 20.7 mph 31.1 mph N/A   Overcast
3:17 AM 30.2 °F 17.1 °F 26.6 °F 86% 29.85 in 7.0 mi North 21.9 mph 27.6 mph N/A   Overcast
3:37 AM 30.2 °F 17.4 °F 26.6 °F 86% 29.85 in 7.0 mi North 20.7 mph 29.9 mph N/A   Overcast
3:56 AM 30.2 °F 16.8 °F 26.6 °F 86% 29.84 in 7.0 mi North 23.0 mph 29.9 mph N/A   Overcast
4:17 AM 30.2 °F 17.1 °F 26.6 °F 86% 29.84 in 7.0 mi North 21.9 mph 35.7 mph N/A   Overcast
4:37 AM 30.2 °F 18.5 °F 26.6 °F 86% 29.85 in 7.0 mi North 17.3 mph 31.1 mph N/A   Overcast
4:56 AM 30.2 °F 18.1 °F 24.8 °F 80% 29.86 in 7.0 mi North 18.4 mph 28.8 mph N/A   Overcast
5:17 AM 30.2 °F 17.1 °F 24.8 °F 80% 29.87 in 7.0 mi North 21.9 mph 33.4 mph N/A   Overcast
5:37 AM 30.2 °F 16.8 °F 24.8 °F 80% 29.88 in 7.0 mi North 23.0 mph 33.4 mph N/A   Overcast
5:56 AM 28.4 °F 14.4 °F 24.8 °F 86% 29.89 in 7.0 mi North 23.0 mph 31.1 mph N/A   Overcast
6:17 AM 28.4 °F 14.4 °F 24.8 °F 86% 29.88 in 4.0 mi North 23.0 mph 28.8 mph N/A Snow Light Snow
6:37 AM 28.4 °F 16.2 °F 23.0 °F 80% 29.89 in 7.0 mi North 17.3 mph 33.4 mph N/A   Overcast
7:17 AM 26.6 °F 13.8 °F 21.2 °F 80% 29.93 in 7.0 mi North 17.3 mph 31.1 mph N/A   Overcast
7:37 AM 26.6 °F 12.0 °F 23.0 °F 86% 29.93 in 7.0 mi North 23.0 mph 31.1 mph N/A   Overcast
7:56 AM 26.6 °F 13.8 °F 23.0 °F 86% 29.96 in 7.0 mi North 17.3 mph 25.3 mph N/A   Overcast
8:17 AM 26.6 °F 13.4 °F 23.0 °F 86% 29.96 in 7.0 mi North 18.4 mph 25.3 mph N/A   Overcast
8:36 AM 26.6 °F 13.8 °F 21.2 °F 80% 29.97 in 7.0 mi North 17.3 mph 28.8 mph N/A   Overcast
8:57 AM 26.6 °F 13.1 °F 21.2 °F 80% 29.95 in 5.0 mi North 19.6 mph 33.4 mph N/A   Haze
9:17 AM 26.6 °F 13.4 °F 21.2 °F 80% 29.97 in 5.0 mi North 18.4 mph 28.8 mph N/A   Haze
9:36 AM 26.6 °F 14.3 °F 23.0 °F 86% 29.98 in 5.0 mi North 16.1 mph 27.6 mph N/A   Overcast
9:57 AM 26.6 °F 12.7 °F 21.2 °F 80% 29.97 in 7.0 mi North 20.7 mph 31.1 mph N/A   Overcast
10:17 AM 26.6 °F 13.4 °F 21.2 °F 80% 29.97 in 10.0 mi North 18.4 mph 34.5 mph N/A   Overcast
10:37 AM 26.6 °F 12.0 °F 21.2 °F 80% 29.95 in 7.0 mi North 23.0 mph 31.1 mph N/A   Overcast
10:57 AM 26.6 °F 12.4 °F 21.2 °F 80% 29.97 in 7.0 mi NNE 21.9 mph 29.9 mph N/A   Overcast
11:17 AM 26.6 °F 11.7 °F 21.2 °F 80% 29.98 in 10.0 mi North 24.2 mph 31.1 mph N/A   Overcast
11:37 AM 26.6 °F 12.7 °F 21.2 °F 80% 29.99 in 5.0 mi North 20.7 mph 32.2 mph N/A   Haze
11:57 AM 26.6 °F 13.8 °F 21.2 °F 80% 29.98 in 10.0 mi North 17.3 mph 33.4 mph N/A   Overcast
12:17 PM 26.6 °F 12.7 °F 21.2 °F 80% 29.99 in 10.0 mi North 20.7 mph 32.2 mph N/A   Overcast
12:36 PM 26.6 °F 12.7 °F 21.2 °F 80% 29.98 in 7.0 mi North 20.7 mph 28.8 mph N/A   Overcast
12:57 PM 26.6 °F 10.6 °F 21.2 °F 80% 29.96 in 10.0 mi North 28.8 mph 33.4 mph N/A   Overcast
1:16 PM 26.6 °F 12.7 °F 21.2 °F 80% 29.98 in 10.0 mi North 20.7 mph 29.9 mph N/A   Overcast
1:37 PM 26.6 °F 12.4 °F 21.2 °F 80% 29.97 in 10.0 mi North 21.9 mph 33.4 mph N/A   Overcast
1:57 PM 26.6 °F 12.7 °F 21.2 °F 80% 29.96 in 7.0 mi North 20.7 mph 35.7 mph N/A   Overcast
2:16 PM 28.4 °F 14.4 °F 21.2 °F 74% 29.96 in 10.0 mi North 23.0 mph 33.4 mph N/A   Overcast
2:37 PM 28.4 °F 13.0 °F 21.2 °F 74% 29.94 in 10.0 mi North 28.8 mph 38.0 mph N/A   Overcast
2:56 PM 26.6 °F 12.7 °F 21.2 °F 80% 29.94 in 10.0 mi North 20.7 mph 35.7 mph N/A   Overcast
3:17 PM 28.4 °F 15.1 °F 21.2 °F 74% 29.92 in 10.0 mi North 20.7 mph 34.5 mph N/A   Overcast
3:37 PM 26.6 °F 11.7 °F 21.2 °F 80% 29.93 in 10.0 mi North 24.2 mph 29.9 mph N/A   Overcast
3:57 PM 26.6 °F 12.7 °F 21.2 °F 80% 29.93 in 10.0 mi North 20.7 mph 28.8 mph N/A   Overcast
4:17 PM 26.6 °F 13.8 °F 21.2 °F 80% 29.94 in 10.0 mi North 17.3 mph 32.2 mph N/A   Overcast
4:37 PM 26.6 °F 12.0 °F 21.2 °F 80% 29.94 in 10.0 mi North 23.0 mph 31.1 mph N/A   Overcast
4:57 PM 26.6 °F 12.7 °F 21.2 °F 80% 29.95 in 10.0 mi North 20.7 mph 29.9 mph N/A   Overcast
5:17 PM 26.6 °F 13.1 °F 21.2 °F 80% 29.95 in 7.0 mi North 19.6 mph 28.8 mph N/A   Overcast
5:37 PM 26.6 °F 12.4 °F 19.4 °F 74% 29.95 in 7.0 mi North 21.9 mph 31.1 mph N/A   Overcast
5:56 PM 26.6 °F 13.4 °F 19.4 °F 74% 29.94 in 10.0 mi North 18.4 mph 31.1 mph N/A   Overcast
6:17 PM 26.6 °F 12.4 °F 19.4 °F 74% 29.95 in 10.0 mi North 21.9 mph 31.1 mph N/A   Overcast
6:36 PM 24.8 °F 10.7 °F 19.4 °F 80% 29.95 in 10.0 mi North 19.6 mph 27.6 mph N/A   Overcast
6:57 PM 24.8 °F 11.5 °F 19.4 °F 80% 29.96 in 10.0 mi North 17.3 mph 29.9 mph N/A   Overcast
7:17 PM 24.8 °F 11.1 °F 19.4 °F 80% 29.97 in 10.0 mi North 18.4 mph 26.5 mph N/A   Overcast
7:36 PM 24.8 °F 10.7 °F 19.4 °F 80% 29.96 in 7.0 mi North 19.6 mph 29.9 mph N/A   Overcast
7:57 PM 23.0 °F 8.0 °F 19.4 °F 86% 29.97 in 10.0 mi North 20.7 mph 26.5 mph N/A   Overcast
8:17 PM 23.0 °F 8.7 °F 17.6 °F 80% 29.97 in 10.0 mi North 18.4 mph 27.6 mph N/A   Overcast
8:37 PM 23.0 °F 6.9 °F 19.4 °F 86% 29.97 in 10.0 mi North 24.2 mph 27.6 mph N/A   Overcast
8:57 PM 23.0 °F 9.2 °F 17.6 °F 80% 29.98 in 10.0 mi North 17.3 mph 24.2 mph N/A   Overcast
9:16 PM 23.0 °F 9.2 °F 19.4 °F 86% 29.98 in 10.0 mi North 17.3 mph 26.5 mph N/A   Overcast
9:37 PM 23.0 °F 9.6 °F 19.4 °F 86% 29.98 in 10.0 mi North 16.1 mph 21.9 mph N/A   Overcast
9:57 PM 23.0 °F 10.1 °F 19.4 °F 86% 29.98 in 10.0 mi North 15.0 mph 21.9 mph N/A   Overcast
10:16 PM 23.0 °F 9.2 °F 19.4 °F 86% 29.98 in 10.0 mi North 17.3 mph 24.2 mph N/A   Overcast
10:37 PM 23.0 °F 8.3 °F 17.6 °F 80% 29.97 in 10.0 mi North 19.6 mph 25.3 mph N/A   Overcast
10:57 PM 23.0 °F 10.1 °F 17.6 °F 80% 29.97 in 10.0 mi North 15.0 mph 24.2 mph N/A   Overcast
11:16 PM 23.0 °F 9.6 °F 17.6 °F 80% 29.96 in 10.0 mi North 16.1 mph 26.5 mph N/A   Overcast
11:37 PM 23.0 °F 8.7 °F 17.6 °F 80% 29.95 in 10.0 mi North 18.4 mph 21.9 mph N/A   Overcast
12:17 AM 23.0 °F 10.6 °F 17.6 °F 80% 29.94 in 10.0 mi North 13.8 mph 19.6 mph N/A   Overcast
12:37 AM 23.0 °F 10.1 °F 17.6 °F 80% 29.93 in 10.0 mi North 15.0 mph - N/A   Overcast
12:56 AM 21.2 °F 8.3 °F 17.6 °F 86% 29.92 in 10.0 mi North 13.8 mph 20.7 mph N/A   Overcast